Location: Newark
(49.2191°N, 12.6671°E)
Time: 20:53:18
(UTC+00:00)

Transit 2A - Pass Details

Date: 30 January 2020
Orbit: 600 x 959 km, 66.7° (Epoch: 22 February)

Event Time Altitude Azimuth Distance (km) Brightness Sun altitude
Rises 18:25:59 0° 222° (SW) 2,870 9.6 -23.6°
Reaches altitude 10° 18:28:15 10° 225° (SW) 1,950 8.7 -23.9°
Maximum altitude 18:32:34 67° 308° (NW) 655 5.7 -24.6°
Enters shadow 18:32:57 63° 342° (NNW) 676 5.7 -24.7°
